This is the latest recevied weather packets stored in our database for station/object DL5DI-H. If no packets are shown the sender has not sent any weather packets the latest 1 day(s).
| Time | Temp. | Humidity | Pressure | Rain* | Wind** | Luminosity | Snow |
|---|---|---|---|---|---|---|---|
| 1778081405 | 12.22° C | 83% | 1007.6 hPa | 0 mm | - | - | - |
| 1778076601 | 12.78° C | 83% | 1007.1 hPa | 0 mm | - | - | - |
| 1778076001 | 12.78° C | 83% | 1007.1 hPa | 0 mm | - | - | - |
| 1778074201 | 13.33° C | 82% | 1007.1 hPa | 0 mm | - | - | - |
| 1778071804 | 13.89° C | 82% | 1006.7 hPa | 0 mm | - | - | - |
| 1778068200 | 13.33° C | 85% | 1006.6 hPa | 0 mm | - | - | - |
| 1778067005 | 13.89° C | 87% | 1006.6 hPa | 0 mm | - | - | - |
| 1778065805 | 13.33° C | 87% | 1006.5 hPa | 0 mm | - | - | - |
| 1778062801 | 12.78° C | 88% | 1006.2 hPa | 0 mm | - | - | - |
| 1778061602 | 12.78° C | 89% | 1006.2 hPa | 0 mm | - | - | - |
| 1778058601 | 12.22° C | 90% | 1005.9 hPa | 0 mm | - | - | - |
| 1778053205 | 12.22° C | 90% | 1005.7 hPa | 0 mm | - | - | - |
| 1778052001 | 12.22° C | 91% | 1005.6 hPa | 0 mm | - | - | - |
| 1778050201 | 12.22° C | 91% | 1005.6 hPa | 0 mm | - | - | - |
| 1778049005 | 12.22° C | 92% | 1005.4 hPa | 0 mm | - | - | - |
| 1778048405 | 11.67° C | 92% | 1005.4 hPa | 0 mm | - | - | - |
| 1778047801 | 11.67° C | 92% | 1005.4 hPa | 0 mm | - | - | - |
| 1778046601 | 11.67° C | 92% | 1005.4 hPa | 0 mm | - | - | - |
| 1778045405 | 11.67° C | 92% | 1005.4 hPa | 0.25 mm | - | - | - |
| 1778044801 | 11.67° C | 92% | 1005.6 hPa | 0.51 mm | - | - | - |
| 1778041800 | 11.67° C | 92% | 1005.6 hPa | 0.51 mm | - | - | - |
| 1778041205 | 11.67° C | 92% | 1005.7 hPa | 0.25 mm | - | - | - |
| 1778039401 | 11.67° C | 91% | 1005.7 hPa | 0 mm | - | - | - |
| 1778038805 | 11.67° C | 92% | 1005.7 hPa | 0 mm | - | - | - |
| 1778038205 | 11.67° C | 92% | 1005.6 hPa | 0 mm | - | - | - |
* Rain latest hour (hover to see other rain measurements)
** Current wind speed in m/s (hover to see current wind gust speed)